IRIDIUM 33 DEB, 35080

Orbit data source: Space-Track

IRIDIUM 33 DEB, 35080 is space debris in LEO originally from a launch on Sun, 14 Sep 1997 UTC launched from the Tyuratam Missile And Space Complex (TTMTR). The debris from Iridium 33, an American commercial communications satellite, has been tracked extensively since its accidental collision with the defunct Russian satellite Cosmos 2251 in 2009. This event, occurring at high speed in low Earth orbit (LEO), generated thousands of pieces of space debris, significantly increasing the risk of further collisions. The Iridium 33 debris cloud has impacted space traffic management and orbital debris mitigation strategies, making it a subject of ongoing study in space situational awareness.

Loading next visibility...
Identifier
35080, 1997-051PF
Orbit
LEO
Country
Flag of USUS
Related business
Manufacturer
Unknown
Mission
Spacecraft
Bus & Motor
Unknown
Mass
Unknown
Launch date (UTC)
1997-09-14 (28 years ago)
Launch vehicle
Unknown
Launch site
Tyuratam Missile And Space Complex (TTMTR)
Object type
Payload
Rocket body
Debris
Shape & HBR
Unknown shape, 0.1 m
Radar Cross Section
Small (<0.1 m²)

Expand to show TLE details & history
Last TLE update: 16 hours ago

TLE from 16 hours ago
0 IRIDIUM 33 DEB
1 35080U 97051PF  25351.60276991  .00043801  00000-0  47546-2 0  9998
2 35080  86.2078  50.0516 0059534 162.9618 197.3625 14.86627961697606
Epoch: 2025-12-17T14:27Z
TLE epoch observation values (Epoch: 2025-12-17T14:27:59.320Z)
Latitude
0.00002°
Longitude
106.58417°
Altitude
651.333 km
Speed
7.51 km/s
True Right ascension
03h 20m 12s
True Declination
0° 00' 00"
Sunlit
Object was in full shadow at epoch
Visualization orbit readout
Latitude
Unknown
Longitude
Unknown
Altitude
Unknown
Speed
Unknown
Apparent Right ascension
Unknown
Apparent Declination
Unknown
Sunlit
N/A
Visualization observer readout
Local Sidereal Time
05:19:12
Azimuth
Unknown
Elevation
Unknown
Doppler factor
Unknown
Orbital elements
Apogee altitude
646.951 km
Perigee altitude
563.8 km
Semi-major axis
6,983.512 km
Eccentricity
0.00595
Inclination
86.2078°
RAAN
50.0516°
Arg. of periapsis
162.9618°
True anomaly
197.16035°
Mean anomaly
197.3625°
Eccentric anomaly
197.26128°
Mean motion
3.71905 °/min
Orbital period
96.8 mins
BSTAR
0.0047546
Loading maneuver chart data...
Computing Atmospheric mass density...

Documentation

Showing up to 5 results
|